World > North America > United States > Utah

Hourly Lake Shore, UT Regional Weather

Feedback E-mail the Weather

Quick WX

Lake Shore, UT Weather Maps

°F °C°F °C
Lake Shore Weather Map
UTC Time: 6/30/2022, 18:57
Your Time:

Lake Shore, UT Regional Weather

Expires:202206301900;;451347
ASUS45 KSLC 301810
RWRUT 

UTAH REGIONAL WEATHER ROUNDUP
NATIONAL WEATHER SERVICE SALT LAKE CITY UT
1200 PM MDT THU JUN 30 2022


UTZ024>027-106-112>120-301900-

CENTRAL/NORTHEAST UTAH
  
CITY           SKY/WX    TMP DP  RH WIND       PRES   REMARKS
PROVO AIRPORT  SUNNY     87  49  26 VRB6      30.09F                  
MOAB/CANYONLAN PTSUNNY   81  49  32 SE15      30.14F                  
DELTA            N/A     86  41  20 SW5       30.10F                  
MANTI            N/A     79  50  36 CALM      30.17F                  
PRICE          PTSUNNY   77  48  35 S10       30.23S                  
DUCHESNE       CLEAR     73  52  46 E10G16    30.25S                  
VERNAL         MOSUNNY   76  54  46 S6        30.22F                  

$$


SKY/WX - Weather  TMP - Temperature  DP - Dew Point  RH - Humidity
WIND - Wind Direction/Speed PRES - Barometric Pressure VSB - Visibility
WCI - Wind Chill Index E13G22 Wind - East Wind 13 mph/Gusts of 22 mph

Trending Headlines

Lake Shore Radar Loop



Lake Shore Quick Facts


National Two Day Weather Forecast


E-mail the Lake Shore Weather Forecast

Voice your opinion or tell us about page issues...